Volver al catálogo

STARLINK-34571

ActivoComunicacionesVLEO
NORAD 64914·PAYLOAD·🇺🇸 United States

Lanzado Jul 26, 2025 desde Cape Canaveral Space Force Station

Loading…

Próximos Pases (próximas 24 horas)

TLE

ActualizadoSource: CelesTrak SupGP

Época: Sep 14, 2026, 23:03 UTC

1 64914C 25157L   26257.96090278 -.00042408  00000+0 -12524-2 0  2579
2 64914  53.1576 183.6550 0001290 103.1990 216.9648 15.34424464    10

Sigue STARLINK-34571 en tiempo real con AllMySat

Download on the App Store